Date,TemperatureHighF,TemperatureAvgF,TemperatureLowF,DewpointHighF,DewpointAvgF,DewpointLowF,HumidityHigh,HumidityAvg,HumidityLow,PressureMaxIn,PressureMinIn,WindSpeedMaxMPH,WindSpeedAvgMPH,GustSpeedMaxMPH,PrecipitationSumIn
2013-1-1,27.0,21.5,14.0,21.0,11.9,5.0,91,67,45,30.08,29.91,28,14,35,0.00
2013-1-2,29.0,25.3,20.0,23.0,19.2,12.0,85,78,69,30.01,29.91,14,10,21,0.00
2013-1-3,35.0,29.1,24.0,29.0,22.3,18.0,86,76,57,29.96,29.69,29,13,37,0.00
2013-1-4,44.0,34.4,27.0,31.0,22.5,16.0,76,62,45,30.06,29.69,41,16,48,0.00
2013-1-5,43.0,34.8,27.0,31.0,26.7,21.0,81,72,57,30.09,29.75,18,9,26,0.00
2013-1-6,40.0,31.4,19.0,36.0,26.2,15.0,95,81,73,30.15,29.71,39,20,47,0.00
2013-1-7,43.0,31.8,19.0,28.0,22.2,15.0,88,68,52,30.14,29.69,19,12,35,0.00
2013-1-8,46.0,38.3,27.0,38.0,29.8,24.0,89,72,51,30.03,29.70,17,10,33,0.00
2013-1-9,43.0,40.6,35.0,37.0,31.4,27.0,78,70,61,30.36,29.67,23,13,43,0.00
2013-1-10,47.0,37.0,28.0,38.0,28.2,24.0,87,72,41,30.39,29.93,14,10,28,0.00
2013-1-11,46.0,43.9,41.0,44.0,41.5,33.0,96,91,66,29.96,29.48,16,10,29,0.00
2013-1-12,50.0,44.7,34.0,49.0,38.3,23.0,97,79,56,29.86,29.38,22,13,37,0.00
2013-1-13,34.0,28.8,24.0,25.0,20.7,14.0,79,71,65,29.94,29.83,26,13,34,0.00
2013-1-14,32.0,22.7,17.0,14.0,11.2,5.0,75,62,39,30.25,29.93,18,13,29,0.00
2013-1-15,35.0,26.0,15.0,18.0,11.2,5.0,67,54,35,30.28,29.86,19,12,36,0.00
2013-1-16,37.0,29.5,24.0,30.0,21.8,18.0,92,73,62,29.98,29.47,41,21,52,0.00
2013-1-17,24.0,15.9,9.0,22.0,8.3,2.0,92,71,54,30.25,29.96,41,17,46,0.00
2013-1-18,23.0,15.6,8.0,21.0,11.1,2.0,93,82,69,30.27,29.70,17,9,23,0.00
2013-1-19,37.0,28.1,23.0,35.0,24.9,19.0,94,87,74,29.72,29.38,44,12,57,0.00
2013-1-20,24.0,16.6,7.0,22.0,11.1,-3.0,94,79,53,30.10,29.57,54,25,69,0.00
2013-1-21,11.0,4.6,-1.0,2.0,-5.1,-12.0,72,63,52,30.07,29.92,29,14,39,0.00
2013-1-22,9.0,2.9,-4.0,0.0,-32.5,-99.9,70,44,52,30.18,30.06,20,14,34,0.00
2013-1-23,21.0,11.4,2.0,19.0,2.5,-8.0,91,67,49,30.29,29.94,40,14,53,0.00
2013-1-24,20.0,15.6,12.0,15.0,8.6,1.0,91,75,45,30.58,30.27,29,15,53,0.00
2013-1-25,27.0,19.4,15.0,21.0,14.3,6.0,90,81,65,30.34,29.85,15,8,20,0.00
2013-1-26,30.0,27.3,23.0,28.0,20.9,17.0,92,77,62,30.30,29.96,39,17,47,0.00
2013-1-27,29.0,27.6,27.0,22.0,19.7,18.0,79,71,64,30.25,30.13,15,11,28,0.00
2013-1-28,40.0,37.2,34.0,39.0,36.2,34.0,98,96,93,29.90,29.78,89,11,90,0.00
2013-1-29,43.0,39.4,37.0,42.0,38.3,36.0,98,96,90,29.84,29.43,26,12,31,0.00
2013-1-30,39.0,31.4,24.0,37.0,28.8,23.0,98,90,77,29.53,29.30,42,32,54,0.00
2013-1-31,24.0,20.0,18.0,23.0,18.0,16.0,95,92,85,29.84,29.30,37,25,50,0.00
2013-2-1,19.0,12.9,4.0,17.0,6.1,-3.0,92,75,55,30.05,29.85,26,13,38,0.00
2013-2-2,19.0,9.0,0.0,11.0,1.8,-5.0,82,72,55,30.04,29.92,26,11,32,0.00
2013-2-3,20.0,13.1,5.0,14.0,5.8,0.0,85,73,56,29.94,29.75,37,13,45,0.00
2013-2-4,25.0,10.7,0.0,8.0,2.4,-4.0,80,70,46,29.94,29.82,15,10,24,0.00
2013-2-5,29.0,17.3,1.0,24.0,11.1,-3.0,87,76,61,29.95,29.63,33,15,42,0.00
2013-2-6,28.0,19.7,8.0,22.0,12.1,4.0,91,73,56,30.14,29.94,17,9,28,0.00
2013-2-7,31.0,26.7,24.0,26.0,23.3,20.0,93,87,68,30.16,30.10,26,13,37,0.00
2013-2-8,30.0,25.1,8.0,25.0,18.0,5.0,87,74,61,30.34,30.16,22,14,32,0.00
2013-2-9,36.0,21.9,5.0,26.0,16.0,1.0,88,78,59,30.34,30.03,20,11,36,0.00
2013-2-10,39.0,33.6,29.0,37.0,30.1,25.0,96,87,77,30.05,29.37,17,9,31,0.00
2013-2-11,41.0,35.8,29.0,41.0,33.7,23.0,99,92,78,29.73,29.18,43,19,55,0.00
2013-2-12,34.0,29.8,26.0,25.0,22.2,19.0,84,73,58,29.87,29.70,21,12,33,0.00
2013-2-13,48.0,32.1,24.0,35.0,26.5,21.0,93,81,51,29.70,29.55,15,9,21,0.00
2013-2-14,37.0,33.2,27.0,35.0,29.2,19.0,93,85,70,29.88,29.57,37,22,47,0.00
2013-2-15,27.0,22.5,17.0,23.0,16.1,9.0,87,76,65,30.11,29.88,36,24,53,0.00
2013-2-16,24.0,19.8,15.0,19.0,13.4,9.0,93,76,62,30.12,30.02,29,20,37,0.00
2013-2-17,30.0,16.1,-2.0,11.0,4.9,-6.0,83,64,35,30.11,29.90,14,10,26,0.00
2013-2-18,41.0,34.4,21.0,37.0,27.3,7.0,96,76,52,29.90,29.38,19,11,33,0.00
2013-2-19,38.0,28.7,19.0,37.0,27.8,17.0,99,96,91,29.89,29.30,52,38,65,0.00
2013-2-20,24.0,21.8,20.0,20.0,18.8,17.0,93,88,83,30.34,29.90,51,35,64,0.00
2013-2-21,29.0,26.8,24.0,27.0,24.0,19.0,95,89,80,30.42,30.26,26,15,37,0.00
2013-2-22,30.0,26.6,21.0,28.0,24.6,19.0,95,92,86,30.26,29.76,17,9,24,0.00
2013-2-23,40.0,32.2,24.0,34.0,29.7,23.0,96,91,70,29.78,29.67,18,8,101,0.00
2013-2-24,39.0,34.4,33.0,33.0,30.8,29.0,97,87,71,30.07,29.78,24,13,33,0.00
2013-2-25,43.0,35.8,27.0,32.0,29.7,25.0,94,79,56,30.09,30.05,13,7,20,0.00
2013-2-26,39.0,36.4,33.0,35.0,32.2,30.0,92,84,76,30.09,29.88,22,10,30,0.00
2013-2-27,38.0,36.5,35.0,36.0,-0.4,-99.9,99,66,80,29.89,29.74,25,19,36,0.00
2013-2-28,37.0,32.7,30.0,36.0,27.9,22.0,98,83,69,30.17,29.83,30,22,46,0.00
2013-3-1,31.0,27.8,26.0,23.0,19.9,16.0,84,72,58,30.30,30.16,23,17,33,0.00
2013-3-2,29.0,26.4,18.0,21.0,18.7,9.0,82,72,58,30.22,30.11,21,16,29,0.00
2013-3-3,32.0,26.0,15.0,22.0,17.9,9.0,78,71,57,30.12,30.05,21,12,27,0.00
2013-3-4,30.0,25.1,16.0,24.0,19.4,14.0,91,79,63,30.16,30.06,13,9,17,0.00
2013-3-5,36.0,23.4,7.0,32.0,19.0,3.0,92,83,74,30.14,30.07,17,10,28,0.00
2013-3-6,36.0,33.1,27.0,34.0,29.7,20.0,97,87,75,30.27,30.10,24,16,30,0.00
2013-3-7,35.0,29.6,25.0,27.0,23.0,20.0,90,77,59,30.40,30.25,19,9,24,0.00
2013-3-8,45.0,32.3,16.0,29.0,24.1,14.0,93,74,47,30.43,30.21,17,9,26,0.00
2013-3-9,43.0,38.4,33.0,38.0,33.4,29.0,93,82,71,30.21,29.78,15,12,31,0.00
2013-3-10,41.0,40.5,40.0,40.0,39.3,38.0,96,95,93,29.78,29.74,13,10,28,0.00
2013-3-12,29.0,27.6,26.0,23.0,22.1,21.0,84,79,76,29.72,29.68,18,12,24,0.00
2013-5-16,54.0,43.3,39.0,45.0,11.9,-99.9,91,80,66,30.75,30.60,17,10,20,0.00
2013-5-17,53.0,44.0,36.0,47.0,35.3,-99.9,92,83,71,30.87,30.75,14,9,15,0.00
2013-5-18,57.0,49.6,39.0,48.0,41.4,36.0,94,75,53,30.83,30.64,13,9,23,0.00
2013-5-19,74.0,49.7,47.0,71.0,42.6,39.0,97,77,67,30.64,30.50,15,10,23,0.00
2013-5-20,51.0,48.3,47.0,51.0,47.7,47.0,99,97,94,30.52,30.43,8,8,14,0.00
2013-5-21,55.0,49.2,46.0,54.0,48.0,44.0,100,95,88,0.00,40.00,20,11,23,0.00
2013-5-22,49.0,46.5,46.0,48.0,42.6,41.0,99,86,80,0.00,40.00,30,20,35,0.00
2013-5-23,48.0,45.5,43.0,46.0,40.8,37.0,95,84,72,0.00,40.00,32,26,39,0.00
2013-5-24,52.0,47.3,43.0,46.0,42.0,39.0,96,82,68,0.00,40.00,22,13,25,0.00
2013-5-25,60.0,47.7,36.0,46.0,41.3,36.0,98,80,44,0.00,40.00,18,10,23,0.00
2013-5-26,59.0,49.2,36.0,52.0,42.4,29.0,100,79,58,0.00,40.00,18,10,23,0.00
2013-5-27,60.0,51.8,41.0,50.0,36.9,20.0,93,63,25,0.00,40.00,20,9,29,0.00
2013-5-28,65.0,59.0,45.0,61.0,51.5,30.0,93,77,49,0.00,40.00,13,9,20,0.00
2013-5-29,68.0,61.4,59.0,61.0,58.2,50.0,99,90,71,0.00,40.00,12,8,18,0.00
2013-5-30,77.0,71.4,56.0,74.0,60.5,53.0,100,71,49,0.00,40.00,22,13,35,0.00
2013-5-31,84.0,84.0,84.0,67.0,67.0,67.0,56,56,56,0.00,40.00,15,15,30,0.00
2013-6-2,52.0,48.0,45.0,46.0,43.4,37.0,100,84,70,0.00,40.00,40,28,50,0.00
2013-6-3,54.0,49.2,33.0,41.0,37.6,30.0,89,65,60,0.00,40.00,12,9,16,0.00
2013-6-4,59.0,47.4,38.0,48.0,34.4,29.0,72,61,39,0.00,40.00,15,9,18,0.00
2013-6-5,58.0,49.9,39.0,56.0,45.2,28.0,100,85,53,0.00,40.00,12,8,17,0.00
2013-6-6,55.0,50.4,46.0,50.0,44.8,41.0,96,82,59,0.00,40.00,17,8,18,0.00
2013-6-7,58.0,50.2,43.0,43.0,39.8,36.0,93,69,44,0.00,40.00,10,8,13,0.00
2013-6-8,66.0,52.9,42.0,54.0,45.1,35.0,98,75,57,0.00,40.00,18,10,21,0.00
2013-6-9,66.0,56.9,46.0,58.0,46.3,36.0,94,70,36,0.00,40.00,15,8,29,0.00
2013-6-10,69.0,59.4,49.0,65.0,53.5,42.0,97,81,57,0.00,40.00,17,8,18,0.00
2013-6-11,65.0,58.8,48.0,62.0,55.2,47.0,99,88,73,0.00,40.00,13,8,17,0.00
2013-6-12,69.0,59.6,51.0,58.0,51.5,46.0,99,77,59,0.00,40.00,13,9,18,0.00
2013-6-13,62.0,55.2,50.0,55.0,49.5,45.0,89,81,67,0.00,40.00,33,19,39,0.00
2013-7-20,-200.0,0.0,200.0,-99.9,-99.9,-99.9,0,0,100,0.00,40.00,6,6,9,0.00
2013-8-1,32.0,32.0,32.0,29.0,29.0,29.0,88,88,88,0.00,40.00,6,6,9,0.00
2013-8-13,-200.0,0.0,200.0,-99.9,-99.9,-99.9,67,67,67,0.00,40.00,13,13,16,0.00
2013-9-8,-200.0,0.0,200.0,-99.9,-99.9,-99.9,0,0,100,0.00,40.00,11,11,14,0.00
2013-9-29,-200.0,0.0,200.0,-99.9,-99.9,-99.9,0,0,100,0.00,40.00,8,8,13,0.00
2013-10-9,75.0,68.8,59.0,53.0,51.7,51.0,81,55,43,0.00,40.00,10,8,18,0.00
2013-10-10,73.0,64.0,53.0,50.0,47.3,44.0,81,58,35,0.00,40.00,9,7,14,0.00
2013-10-11,69.0,53.6,47.0,51.0,49.2,47.0,99,87,52,0.00,40.00,9,6,16,0.00
2013-10-12,67.0,59.5,50.0,61.0,55.1,49.0,97,86,71,0.00,40.00,12,8,21,0.00
2013-10-13,55.0,45.1,47.0,46.0,27.3,-99.9,95,67,60,0.00,40.00,16,10,19,0.00
2013-10-14,56.0,47.1,34.0,46.0,40.4,33.0,96,79,61,0.00,40.00,8,6,11,0.00
2013-10-15,52.0,50.5,50.0,50.0,48.0,46.0,97,92,88,0.00,40.00,8,7,11,0.00
2013-10-16,53.0,50.3,45.0,52.0,45.8,34.0,100,86,64,0.00,40.00,23,10,28,0.00
2013-10-17,56.0,43.6,33.0,41.0,35.4,32.0,96,76,52,0.00,40.00,7,6,11,0.00
2013-10-18,47.0,45.0,42.0,46.0,42.6,40.0,95,91,84,0.00,40.00,14,11,19,0.00
2013-10-19,50.0,45.2,39.0,41.0,37.6,33.0,92,76,52,0.00,40.00,8,7,12,0.00
2013-10-20,45.0,37.3,33.0,37.0,34.7,32.0,96,91,72,0.00,40.00,6,6,9,0.00
2013-10-21,42.0,39.6,38.0,37.0,29.1,23.0,97,67,54,0.00,40.00,12,9,20,0.00
2013-10-22,42.0,40.1,35.0,36.0,34.1,30.0,88,80,71,0.00,40.00,20,18,28,0.00
2013-10-23,42.0,36.1,33.0,32.0,29.1,26.0,92,76,63,0.00,40.00,9,7,18,0.00
2013-10-24,41.0,40.5,40.0,35.0,34.5,34.0,81,78,76,0.00,40.00,12,10,19,0.00
2013-10-25,42.0,34.8,32.0,29.0,29.0,29.0,88,80,60,0.00,40.00,12,9,16,0.00
2013-10-26,42.0,41.1,37.0,36.0,33.6,31.0,80,74,67,0.00,40.00,21,15,28,0.00
2013-10-27,45.0,31.2,34.0,34.0,9.7,-99.9,89,66,65,0.00,40.00,6,5,9,0.00
2013-10-28,41.0,32.9,35.0,31.0,11.8,-99.9,72,63,55,0.00,40.00,16,9,26,0.00
2013-10-29,38.0,30.4,27.0,23.0,22.2,21.0,81,72,49,0.00,40.00,5,4,8,0.00
2013-10-30,47.0,46.5,46.0,46.0,44.5,43.0,93,92,92,0.00,40.00,6,6,10,0.00
2013-10-31,53.0,50.6,48.0,52.0,49.4,46.0,100,96,92,0.00,40.00,15,6,19,0.00
2013-11-1,48.0,44.7,42.0,45.0,42.3,39.0,97,91,84,0.00,40.00,29,19,33,0.00
2013-11-2,42.0,40.0,38.0,37.0,33.6,32.0,81,78,73,0.00,40.00,12,8,17,0.00
2013-11-3,46.0,35.9,33.0,36.0,24.4,-99.9,87,74,56,0.00,40.00,9,6,14,0.00
2013-11-4,49.0,48.0,40.0,40.0,39.1,34.0,78,72,68,30.11,30.00,17,12,31,0.00
2013-11-5,49.0,43.0,36.0,43.0,35.9,29.0,94,77,46,30.22,30.07,14,8,21,0.00
2013-11-6,42.0,40.4,39.0,39.0,37.8,37.0,94,90,86,30.07,29.80,30,19,35,0.00
2013-11-7,38.0,36.0,34.0,32.0,28.2,25.0,83,73,65,30.09,29.99,17,12,28,0.00
2013-11-8,44.0,37.4,33.0,32.0,25.2,20.0,88,63,39,30.18,29.99,12,9,21,0.00
2013-11-9,41.0,37.6,36.0,38.0,29.3,-99.9,95,81,78,29.98,29.59,15,12,25,0.00
2013-11-10,40.0,39.2,37.0,37.0,32.6,26.0,92,78,61,30.18,29.75,41,22,51,0.00
2013-11-11,38.0,30.0,27.0,32.0,23.3,18.0,94,77,65,30.34,30.00,38,27,49,0.00
2013-11-12,30.0,25.6,19.0,20.0,14.9,8.0,76,64,50,30.57,30.41,25,12,40,0.00
2013-11-13,46.0,31.5,19.0,30.0,18.2,10.0,70,58,44,30.41,29.78,16,10,31,0.00
2013-11-14,43.0,39.0,34.0,32.0,30.4,29.0,85,71,62,29.82,29.77,11,9,18,0.00
2013-11-15,56.0,42.1,32.0,46.0,34.3,29.0,94,76,47,29.86,29.78,14,8,22,0.00
2013-11-16,51.0,42.7,37.0,50.0,36.9,-99.9,97,86,78,29.86,29.38,16,11,31,0.00
2013-11-17,54.0,50.4,42.0,53.0,48.6,34.0,100,93,80,29.37,29.13,27,11,35,0.00
2013-11-19,35.0,29.8,26.0,26.0,20.1,16.0,76,67,46,30.34,30.15,33,14,38,0.00
2013-11-20,44.0,39.9,34.0,33.0,31.2,27.0,79,71,61,30.20,30.14,16,12,34,0.00
2013-11-21,40.0,37.6,33.0,37.0,34.4,31.0,95,88,80,30.26,30.12,34,13,42,0.00
2013-11-22,33.0,30.9,26.0,30.0,23.8,16.0,92,75,54,30.43,30.25,32,22,43,0.00
2013-11-23,24.0,18.8,16.0,19.0,11.3,-99.9,94,79,67,30.60,30.34,42,30,53,0.00
2013-11-24,22.0,17.4,12.0,14.0,6.6,2.0,92,64,45,30.59,30.07,23,12,34,0.00
2013-11-25,36.0,30.4,23.0,27.0,18.1,6.0,71,60,47,30.07,29.75,17,12,30,0.00
2013-11-26,35.0,26.0,19.0,28.0,18.8,10.0,94,74,54,30.15,29.82,30,18,38,0.00
2013-11-27,26.0,24.6,21.0,21.0,18.4,12.0,93,78,56,30.20,30.14,26,19,40,0.00
2013-11-28,28.0,19.3,12.0,19.0,15.3,10.0,92,85,62,30.41,30.16,9,7,12,0.00
2013-11-29,28.0,20.4,12.0,19.0,14.8,10.0,90,79,66,30.57,30.36,10,8,18,0.00
2013-11-30,35.0,30.8,27.0,30.0,20.4,-99.9,84,71,63,30.36,30.02,16,10,24,0.00
2013-12-1,36.0,33.9,31.0,32.0,29.2,23.0,95,83,60,30.17,30.04,19,12,23,0.00
2013-12-2,37.0,31.1,28.0,29.0,26.2,22.0,95,83,65,30.04,29.89,10,7,13,0.00
2013-12-3,29.0,26.2,24.0,23.0,21.1,18.0,89,81,74,29.99,29.92,12,8,21,0.00
2013-12-4,36.0,28.5,26.0,35.0,26.7,23.0,99,93,86,29.97,29.37,83,16,83,0.00
2013-12-5,37.0,22.2,11.0,35.0,12.2,1.0,98,65,52,30.03,29.37,23,15,36,0.00
2013-12-6,21.0,12.0,5.0,7.0,1.8,-1.0,74,63,53,30.37,30.16,16,11,22,0.00
2013-12-7,16.0,5.0,0.0,2.0,-32.2,-99.9,72,61,46,30.55,30.41,15,10,24,0.00
2013-12-8,15.0,5.1,-4.0,8.0,-27.8,-99.9,87,69,51,30.56,30.18,13,8,20,0.00
2013-12-9,18.0,11.2,4.0,11.0,-9.5,-99.9,90,75,54,30.16,29.81,16,10,29,0.00
2013-12-10,18.0,3.7,-3.0,6.0,-18.2,-99.9,72,63,47,30.03,29.82,16,10,24,0.00
2013-12-25,18.0,14.2,11.0,12.0,6.9,3.0,86,72,58,30.33,30.02,12,9,23,0.00
2013-12-26,19.0,12.1,2.0,8.0,3.3,-2.0,85,68,50,30.20,30.02,15,10,22,0.00
2013-12-27,29.0,14.4,4.0,24.0,9.8,0.0,86,82,78,30.20,29.83,14,9,27,0.00
2013-12-28,35.0,31.7,30.0,31.0,24.5,-99.9,96,83,78,29.95,29.81,15,8,24,0.00
2013-12-29,27.0,15.8,6.0,26.0,12.4,2.0,96,86,75,30.14,29.82,32,24,45,0.00
2013-12-30,8.0,1.6,-4.0,-3.0,-44.4,-99.9,71,66,58,30.26,30.15,15,11,21,0.00
2013-12-31,9.0,1.6,-3.0,-1.0,-34.2,-99.9,77,65,50,30.34,30.07,22,12,31,0.00
2014-1-1,8.0,1.8,-5.0,5.0,-19.8,-99.9,87,79,67,30.48,30.34,22,14,31,0.00
2014-1-2,12.0,7.5,2.0,6.0,2.2,-5.0,87,79,68,30.46,30.37,24,16,34,0.00